This is the latest recevied weather packets stored in our database for station/object KE8AFF-13. If no packets are shown the sender has not sent any weather packets the latest 10 day(s).
| Time | Temp. | Humidity | Pressure | Rain* | Wind** | Luminosity | Snow |
|---|---|---|---|---|---|---|---|
| 1777325923 | 22.78° C | 61% | 1012.8 hPa | 0 mm | - | 46 W/m² | - |
| 1777325622 | 22.78° C | 61% | 1012.7 hPa | 0 mm | - | 46 W/m² | - |
| 1777325319 | 22.78° C | 60% | 1012.5 hPa | 0 mm | - | 57 W/m² | - |
| 1777325018 | 22.78° C | 60% | 1012.7 hPa | 0 mm | - | 66 W/m² | - |
| 1777324713 | 22.78° C | 60% | 1012.6 hPa | 0 mm | - | 75 W/m² | - |
| 1777324411 | 22.78° C | 60% | 1012.6 hPa | 0 mm | - | 81 W/m² | - |
| 1777324108 | 22.78° C | 60% | 1012.8 hPa | 0 mm | - | 90 W/m² | - |
| 1777323806 | 22.78° C | 60% | 1012.9 hPa | 0 mm | - | 95 W/m² | - |
| 1777323502 | 22.78° C | 60% | 1013 hPa | 0 mm | - | 97 W/m² | - |
| 1777323200 | 22.78° C | 59% | 1013 hPa | 0 mm | - | 108 W/m² | - |
| 1777322897 | 22.78° C | 59% | 1013 hPa | 0 mm | - | 114 W/m² | - |
| 1777322596 | 22.78° C | 59% | 1013 hPa | 0 mm | - | 120 W/m² | - |
| 1777322293 | 22.78° C | 59% | 1013.1 hPa | 0 mm | - | 123 W/m² | - |
| 1777321990 | 22.78° C | 59% | 1013.1 hPa | 0 mm | - | 147 W/m² | - |
| 1777321686 | 22.78° C | 59% | 1013.2 hPa | 0 mm | - | 168 W/m² | - |
| 1777321383 | 23.33° C | 59% | 1013.1 hPa | 0 mm | - | 194 W/m² | - |
| 1777321080 | 23.33° C | 59% | 1013.1 hPa | 0 mm | - | 207 W/m² | - |
| 1777320778 | 23.33° C | 59% | 1013.2 hPa | 0 mm | - | 213 W/m² | - |
| 1777320474 | 23.33° C | 58% | 1013.1 hPa | 0 mm | - | 218 W/m² | - |
| 1777320172 | 23.33° C | 59% | 1013.2 hPa | 0 mm | - | 235 W/m² | - |
| 1777319869 | 23.33° C | 58% | 1013.3 hPa | 0 mm | - | 255 W/m² | - |
| 1777319565 | 23.33° C | 58% | 1013.2 hPa | 0 mm | - | 275 W/m² | - |
| 1777319262 | 23.33° C | 58% | 1013.5 hPa | 0 mm | - | 278 W/m² | - |
| 1777318960 | 23.33° C | 58% | 1013.5 hPa | 0 mm | - | 295 W/m² | - |
| 1777318656 | 23.89° C | 57% | 1013.6 hPa | 0 mm | - | 336 W/m² | - |
* Rain latest hour (hover to see other rain measurements)
** Current wind speed in m/s (hover to see current wind gust speed)